Weather History for Fort Myers, FL

Change the Weather History Date:

Monday, January 7, 2013

  Actual Average Record
Temperature  
Mean Temperature 72 °F 64 °F  
Max Temperature 77 °F 74 °F 85 °F (1947)
Min Temperature 66 °F 54 °F 38 °F (2010)
Degree Days  
Heating Degree Days 0 4  
Month to date heating degree days 0 28  
Since 1 July heating degree days 58 121  
Cooling Degree Days 7 3  
Month to date cooling degree days 40 21  
Year to date cooling degree days 40 21  
Growing Degree Days 20 (Base 50)    
Moisture  
Dew Point 66 °F    
Average Humidity 88    
Maximum Humidity 97    
Minimum Humidity 69    
Precipitation  
Precipitation 0.31 in 0.07 in 2.06 in (1938)
Month to date precipitation 0.46 0.44  
Year to date precipitation 0.46 0.44  
Sea Level Pressure  
Sea Level Pressure 30.12 in    
Wind  
Wind Speed 7 mph (ENE)    
Max Wind Speed 14 mph    
Max Gust Speed 31 mph    
Visibility 8 miles    
Events Rain    
T = Trace of Precipitation, MM = Missing Value Source: NWS Daily Summary

Daily Weather History Graph

Daily Weather History Graph

Search for Another Location

Airport:

Trip Planner

Search our weather history database for the weather conditions in past years. The results will help you decide how hot, cold, wet, or windy it might be!

Date:

Astronomy

Jan. 07, 2013 Rise Set
Actual Time 7:17 AM EST 5:50 PM EST
Civil Twilight 6:51 AM EST 6:16 PM EST
Nautical Twilight 6:23 AM EST 6:44 PM EST
Astronomical Twilight 5:55 AM EST 7:12 PM EST
Moon 2:45 AM EST (1/7) 1:56 PM EST (1/7)
Length of Visible Light 11h 24m
Length of Day
10h 33m
Waning Crescent, 23% of the Moon is Illuminated
Jan 7
Waning Crescent
Jan 11
New
Jan 18
First Quarter
Jan 26
Full
Feb 3
Last Quarter

Hourly Weather History & Observations

Time (EST) Temp. Dew Point Humidity Pressure Visibility Wind Dir Wind Speed Gust Speed Precip Events Conditions
12:23 AM 69.8 °F 68.0 °F 94% 30.11 in 10.0 mi NNE 4.6 mph - N/A   Mostly Cloudy
12:53 AM 70.0 °F 68.0 °F 93% 30.11 in 10.0 mi East 5.8 mph - N/A   Scattered Clouds
1:53 AM 69.1 °F 66.9 °F 93% 30.10 in 10.0 mi NE 8.1 mph - N/A   Clear
2:53 AM 69.1 °F 66.9 °F 93% 30.10 in 10.0 mi ENE 5.8 mph - N/A   Overcast
3:53 AM 69.1 °F 66.9 °F 93% 30.08 in 10.0 mi ENE 5.8 mph - N/A   Overcast
4:21 AM 69.8 °F 66.2 °F 88% 30.08 in 10.0 mi NE 4.6 mph - N/A   Overcast
4:33 AM 69.8 °F 66.2 °F 88% 30.08 in 10.0 mi ENE 3.5 mph - N/A   Overcast
4:53 AM 69.1 °F 66.9 °F 93% 30.09 in 10.0 mi ENE 5.8 mph - N/A   Overcast
5:16 AM 69.8 °F 66.2 °F 88% 30.09 in 10.0 mi East 4.6 mph - N/A   Overcast
5:24 AM 69.8 °F 66.2 °F 88% 30.09 in 10.0 mi East 3.5 mph - N/A   Overcast
5:34 AM 69.8 °F 66.2 °F 88% 30.09 in 10.0 mi ENE 4.6 mph - N/A   Overcast
5:44 AM 69.8 °F 66.2 °F 88% 30.09 in 10.0 mi NE 4.6 mph - N/A   Overcast
5:53 AM 69.1 °F 66.9 °F 93% 30.10 in 9.0 mi NNE 5.8 mph - N/A   Overcast
5:55 AM 69.8 °F 66.2 °F 88% 30.09 in 10.0 mi NE 5.8 mph - N/A   Overcast
6:21 AM 69.8 °F 66.2 °F 88% 30.10 in 10.0 mi NNE 4.6 mph - N/A   Overcast
6:53 AM 69.1 °F 66.9 °F 93% 30.12 in 10.0 mi East 5.8 mph - 0.00 in Rain Light Rain
7:53 AM 69.1 °F 66.9 °F 93% 30.14 in 9.0 mi ENE 4.6 mph - 0.00 in   Overcast
8:15 AM 69.8 °F 66.2 °F 88% 30.14 in 1.8 mi ENE 5.8 mph - 0.01 in Rain Rain
8:27 AM 69.8 °F 66.2 °F 88% 30.14 in 2.5 mi NE 3.5 mph - 0.03 in Rain Light Rain
8:36 AM 69.8 °F 66.2 °F 88% 30.15 in 2.5 mi Calm Calm - 0.03 in Rain Light Rain
8:53 AM 69.1 °F 66.9 °F 93% 30.16 in 2.5 mi East 4.6 mph - 0.04 in Rain Light Rain
9:24 AM 69.8 °F 66.2 °F 88% 30.16 in 2.0 mi East 5.8 mph - 0.01 in Rain Light Rain
9:33 AM 69.8 °F 66.2 °F 88% 30.17 in 1.2 mi ENE 4.6 mph - 0.03 in Rain Rain
9:49 AM 69.8 °F 66.2 °F 88% 30.17 in 1.0 mi ENE 4.6 mph - 0.14 in Rain Rain
9:53 AM 69.1 °F 68.0 °F 96% 30.18 in 1.2 mi NE 4.6 mph - 0.15 in Rain Light Rain
10:03 AM 69.8 °F 66.2 °F 88% 30.17 in 1.2 mi NE 5.8 mph - 0.04 in Rain Rain
10:44 AM 69.8 °F 66.2 °F 88% 30.17 in 2.5 mi ENE 8.1 mph - 0.11 in Rain Light Rain
10:53 AM 69.1 °F 66.9 °F 93% 30.17 in 2.5 mi NE 12.7 mph - 0.12 in Rain Light Rain
11:03 AM 69.8 °F 66.2 °F 88% 30.16 in 4.0 mi ENE 9.2 mph - 0.00 in   Overcast
11:53 AM 68.0 °F 66.0 °F 93% 30.16 in 8.0 mi ENE 9.2 mph - 0.00 in   Overcast
12:53 PM 69.1 °F 66.0 °F 90% 30.12 in 10.0 mi ENE 11.5 mph - N/A   Overcast
2:31 PM 71.6 °F 66.2 °F 83% 30.10 in 10.0 mi NNE 10.4 mph - N/A   Overcast
2:53 PM 72.0 °F 66.0 °F 81% 30.10 in 10.0 mi ENE 11.5 mph - N/A   Overcast
3:17 PM 73.4 °F 66.2 °F 78% 30.09 in 10.0 mi ENE 11.5 mph - N/A   Scattered Clouds
3:53 PM 75.0 °F 64.9 °F 71% 30.10 in 10.0 mi ENE 9.2 mph - N/A   Partly Cloudy
4:53 PM 75.0 °F 64.9 °F 71% 30.10 in 10.0 mi ENE 8.1 mph - N/A   Clear
5:53 PM 73.0 °F 64.9 °F 76% 30.12 in 10.0 mi NE 6.9 mph - N/A   Partly Cloudy
6:53 PM 71.1 °F 64.0 °F 78% 30.14 in 10.0 mi ENE 8.1 mph - N/A   Clear
7:53 PM 70.0 °F 64.0 °F 81% 30.15 in 10.0 mi NE 6.9 mph - N/A   Clear
8:53 PM 68.0 °F 64.0 °F 87% 30.15 in 10.0 mi NE 5.8 mph - N/A   Clear
9:53 PM 66.9 °F 64.0 °F 90% 30.15 in 10.0 mi NE 5.8 mph - N/A   Clear
10:53 PM 66.0 °F 63.0 °F 90% 30.14 in 10.0 mi NE 6.9 mph - N/A   Clear
11:17 PM 66.2 °F 62.6 °F 88% 30.14 in 10.0 mi ENE 4.6 mph - N/A   Mostly Cloudy
11:53 PM 66.0 °F 63.0 °F 90% 30.13 in 10.0 mi NE 5.8 mph - N/A   Overcast